Date,TemperatureHighF,TemperatureAvgF,TemperatureLowF,DewpointHighF,DewpointAvgF,DewpointLowF,HumidityHigh,HumidityAvg,HumidityLow,PressureMaxIn,PressureMinIn,WindSpeedMaxMPH,WindSpeedAvgMPH,GustSpeedMaxMPH,PrecipitationSumIn
2013-1-1,34,26,19,22,15,8,63,59,53,0.00,40.00,0,-999,0,0.00
2013-1-2,36,26,15,18,12,3,57,52,48,0.00,40.00,0,-999,0,0.00
2013-1-3,34,25,15,16,10,3,57,48,43,0.00,40.00,0,-999,0,0.00
2013-1-4,37,28,22,17,11,6,49,46,44,0.00,40.00,0,-999,0,0.00
2013-1-5,36,25,19,18,12,6,57,52,48,0.00,40.00,0,-999,0,0.00
2013-1-6,40,32,20,19,15,7,56,47,42,0.00,40.00,0,-999,0,0.00
2013-1-7,42,33,23,22,17,10,54,49,44,0.00,40.00,0,-999,0,0.00
2013-1-8,48,39,29,24,19,13,51,44,38,0.00,40.00,0,-999,0,0.00
2013-1-9,47,40,28,23,20,13,51,43,38,0.00,40.00,0,-999,0,0.00
2013-1-10,49,34,20,27,19,11,67,54,39,0.00,40.00,0,-999,0,0.00
2013-1-11,20,13,9,11,4,0,70,63,59,0.00,40.00,0,-999,0,0.00
2013-1-12,19,11,2,8,1,-7,61,60,56,0.00,40.00,0,-999,0,0.00
2013-1-13,22,13,7,10,2,-2,61,59,55,0.00,40.00,0,-999,0,0.00
2013-1-14,21,16,9,8,4,-2,58,55,51,0.00,40.00,0,-999,0,0.00
2013-1-15,32,24,19,19,13,7,61,58,54,0.00,40.00,0,-999,0,0.00
2013-1-16,40,32,25,23,18,14,58,54,49,0.00,40.00,0,-999,0,0.00
2013-1-17,42,32,24,24,17,12,58,52,47,0.00,40.00,0,-999,0,0.00
2013-1-18,52,38,32,28,20,16,51,47,38,0.00,40.00,0,-999,0,0.00
2013-1-19,41,33,26,23,18,14,65,53,47,0.00,40.00,0,-999,0,0.00
2013-1-21,25,21,18,13,11,8,62,59,58,0.00,40.00,0,-999,0,0.00
2013-1-22,45,30,16,26,16,7,66,55,45,0.00,40.00,0,-999,0,0.00
2013-1-23,32,24,18,18,13,10,67,58,50,0.00,40.00,0,-999,0,0.00
2013-1-24,51,35,21,31,20,12,64,53,43,0.00,40.00,0,-999,0,0.00
2013-2-4,53,47,41,30,25,22,46,42,39,0.00,40.00,0,-999,0,0.00
2013-2-5,51,40,32,29,23,18,56,49,42,0.00,40.00,0,-999,0,0.00
2013-2-6,54,39,29,30,20,12,65,46,37,0.00,40.00,0,-999,0,0.00
2013-2-7,46,34,22,23,16,10,57,47,39,0.00,40.00,0,-999,0,0.00
2013-2-8,44,34,25,23,17,13,57,50,39,0.00,40.00,0,-999,0,0.00
2013-2-9,44,33,22,26,19,11,72,55,44,0.00,40.00,0,-999,0,0.00
2013-2-10,32,28,18,24,18,10,76,64,52,0.00,40.00,0,-999,0,0.00
2013-2-11,34,24,13,19,12,5,68,57,50,0.00,40.00,0,-999,0,0.00
2013-2-12,42,30,21,22,14,9,55,49,43,0.00,40.00,0,-999,0,0.00
2013-2-13,53,36,30,29,23,14,89,59,39,0.00,40.00,0,-999,0,0.00
2013-2-14,36,31,27,26,19,16,86,60,48,0.00,40.00,0,-999,0,0.00
2013-2-15,43,33,26,30,22,19,74,64,55,0.00,40.00,0,-999,0,0.00
2013-2-16,52,38,27,32,23,17,63,53,44,0.00,40.00,0,-999,0,0.00
2013-2-17,50,38,33,27,22,19,59,51,40,0.00,40.00,0,-999,0,0.00
2013-2-18,41,31,23,24,19,12,69,57,50,0.00,40.00,0,-999,0,0.00
2013-2-19,32,24,14,20,14,6,75,62,54,0.00,40.00,0,-999,0,0.00
2013-2-20,34,29,24,20,16,14,64,56,50,0.00,40.00,0,-999,0,0.00
2013-2-21,39,30,24,26,20,14,72,63,52,0.00,40.00,0,-999,0,0.00
2013-2-22,45,34,25,26,18,14,63,52,39,0.00,40.00,0,-999,0,0.00
2013-2-23,40,35,31,26,20,14,70,55,43,0.00,40.00,0,-999,0,0.00
2013-2-24,50,36,28,28,19,13,63,50,40,0.00,40.00,0,-999,0,0.00
2013-2-25,49,38,27,24,18,12,52,44,35,0.00,40.00,0,-999,0,0.00
2013-2-26,49,38,30,25,17,13,48,42,37,0.00,40.00,0,-999,0,0.00
2013-2-27,49,35,22,24,16,9,54,45,36,0.00,40.00,0,-999,0,0.00
2013-2-28,51,38,30,26,17,12,44,41,37,0.00,40.00,0,-999,0,0.00
2013-3-1,60,44,32,33,22,13,46,41,35,0.00,40.00,0,-999,0,0.00
2013-3-2,66,49,37,36,26,20,50,41,32,0.00,40.00,0,-999,0,0.00
2013-3-3,55,39,28,31,23,15,65,52,39,0.00,40.00,0,-999,0,0.00
2013-3-4,33,25,17,16,11,5,55,52,44,0.00,40.00,0,-999,0,0.00
2013-3-5,34,23,13,20,12,2,71,57,50,0.00,40.00,0,-999,0,0.00
2013-3-6,37,29,18,24,18,10,69,62,53,0.00,40.00,0,-999,0,0.00
2013-3-7,58,40,26,36,25,18,73,56,32,0.00,40.00,0,-999,0,0.00
2013-3-8,47,39,33,29,24,20,65,55,45,0.00,40.00,0,-999,0,0.00
2013-3-9,49,36,25,29,20,12,67,51,35,0.00,40.00,0,-999,0,0.00
2013-3-10,58,41,22,30,20,10,56,43,32,0.00,40.00,0,-999,0,0.00
2013-3-11,49,40,33,24,19,13,50,42,34,0.00,40.00,0,-999,0,0.00
2013-3-12,50,37,24,26,19,13,60,49,37,0.00,40.00,0,-999,0,0.00
2013-3-13,70,51,32,39,26,16,51,38,28,0.00,40.00,0,-999,0,0.00
2013-3-14,72,54,37,40,28,18,50,37,27,0.00,40.00,0,-999,0,0.00
2013-3-15,71,52,37,37,26,21,63,38,25,0.00,40.00,0,-999,0,0.00
2013-3-16,51,38,28,30,23,19,75,55,39,0.00,40.00,0,-999,0,0.00
2013-3-17,44,36,24,26,18,8,67,49,36,0.00,40.00,0,-999,0,0.00
2013-3-18,50,32,18,24,12,4,52,42,32,0.00,40.00,0,-999,0,0.00
2013-3-19,41,32,26,24,16,12,75,51,41,0.00,40.00,0,-999,0,0.00
2013-3-20,58,38,21,31,18,9,57,44,31,0.00,40.00,0,-999,0,0.00
2013-3-21,51,42,33,25,19,8,59,41,31,0.00,40.00,0,-999,0,0.00
2013-3-22,38,28,21,25,12,2,75,49,34,0.00,40.00,0,-999,0,0.00
2013-3-23,42,28,15,20,10,4,57,45,33,0.00,40.00,0,-999,0,0.00
2013-3-24,38,26,15,15,8,2,53,44,33,0.00,40.00,0,-999,0,0.00
2013-3-25,52,32,13,26,10,-1,50,39,29,0.00,40.00,0,-999,0,0.00
2013-3-26,41,32,27,14,9,7,39,35,32,0.00,40.00,0,-999,0,0.00
2013-3-27,64,46,25,32,19,7,43,34,26,0.00,40.00,0,-999,0,0.00
2013-3-28,70,50,31,38,22,11,43,34,27,0.00,40.00,0,-999,0,0.00
2013-3-29,67,51,39,37,27,17,54,40,32,0.00,40.00,0,-999,0,0.00
2013-3-30,65,51,39,37,28,19,56,41,30,0.00,40.00,0,-999,0,0.00
2013-3-31,66,47,33,34,21,14,46,36,28,0.00,40.00,0,-999,0,0.00
2013-4-1,63,46,29,34,21,14,49,37,28,0.00,40.00,0,-999,0,0.00
2013-4-2,68,50,30,36,23,12,45,34,24,0.00,40.00,0,-999,0,0.00
2013-4-3,75,61,46,38,30,24,45,32,24,0.00,40.00,0,-999,0,0.00
2013-4-4,58,49,39,31,26,21,52,42,35,0.00,40.00,0,-999,0,0.00
2013-4-5,60,53,45,40,32,25,57,45,39,0.00,40.00,0,-999,0,0.00
2013-4-6,69,53,38,40,31,22,53,43,30,0.00,40.00,0,-999,0,0.00
2013-4-7,64,50,35,42,35,29,98,58,37,0.00,40.00,0,-999,0,0.00
2013-4-8,35,25,22,35,20,16,99,78,68,0.00,40.00,0,-999,0,0.00
2013-4-9,34,26,20,20,16,12,82,62,44,0.00,40.00,0,-999,0,0.00
2013-4-10,49,35,18,29,20,9,66,54,43,0.00,40.00,0,-999,0,0.00
2013-4-11,62,50,37,38,29,20,59,45,37,0.00,40.00,0,-999,0,0.00
2013-4-12,58,45,36,36,26,19,65,47,32,0.00,40.00,0,-999,0,0.00
2013-4-13,55,41,37,33,26,19,76,56,43,0.00,40.00,0,-999,0,0.00
2013-4-14,41,34,24,27,21,18,78,59,47,0.00,40.00,0,-999,0,0.00
2013-4-15,37,29,22,23,19,14,80,63,49,0.00,40.00,0,-999,0,0.00
2013-4-16,33,28,24,23,20,16,80,67,51,0.00,40.00,0,-999,0,0.00
2013-4-17,40,30,20,26,20,14,80,66,47,0.00,40.00,0,-999,0,0.00
2013-4-18,58,40,20,36,24,13,74,54,37,0.00,40.00,0,-999,0,0.00
2013-4-19,62,49,35,37,29,19,68,46,36,0.00,40.00,0,-999,0,0.00
2013-4-20,61,49,36,40,33,28,74,56,36,0.00,40.00,0,-999,0,0.00
2013-4-21,48,35,28,32,28,25,100,78,48,0.00,40.00,0,-999,0,0.00
2013-4-22,39,31,25,26,22,18,90,69,48,0.00,40.00,0,-999,0,0.00
2013-4-23,53,38,21,30,21,12,68,52,37,0.00,40.00,0,-999,0,0.00
2013-4-24,60,52,39,34,27,22,53,39,33,0.00,40.00,0,-999,0,0.00
2013-4-25,74,57,37,40,27,18,46,33,24,0.00,40.00,0,-999,0,0.00
2013-4-26,79,61,41,42,29,21,45,31,23,0.00,40.00,0,-999,0,0.00
2013-4-27,83,64,47,40,29,21,39,28,20,0.00,40.00,0,-999,0,0.00
2013-4-29,71,54,45,39,30,20,49,40,28,0.00,40.00,0,-999,0,0.00
2013-4-30,56,43,33,28,19,13,48,38,31,0.00,40.00,0,-999,0,0.00
2013-5-1,56,42,29,29,19,13,56,40,29,0.00,40.00,0,-999,0,0.00
2013-5-2,67,52,32,34,23,13,50,34,24,0.00,40.00,0,-999,0,0.00
2013-5-3,71,56,46,38,26,16,68,33,25,0.00,40.00,0,-999,0,0.00
2013-5-4,63,53,47,44,37,30,70,55,40,0.00,40.00,0,-999,0,0.00
2013-5-5,73,56,37,44,32,25,67,43,27,0.00,40.00,0,-999,0,0.00
2013-5-6,78,61,41,42,30,20,44,31,23,0.00,40.00,0,-999,0,0.00
2013-5-7,79,64,46,36,29,25,44,28,20,0.00,40.00,0,-999,0,0.00
2013-5-8,76,64,50,42,35,26,47,35,25,0.00,40.00,0,-999,0,0.00
2013-5-9,64,60,56,41,40,39,52,48,42,0.00,40.00,0,-999,0,0.00
2013-5-10,76,64,50,43,33,21,61,33,25,0.00,40.00,0,-999,0,0.00
2013-5-11,77,62,42,38,31,20,44,32,24,0.00,40.00,0,-999,0,0.00
2013-5-12,93,74,57,48,39,32,40,29,19,0.00,40.00,0,-999,0,0.00
2013-5-13,92,76,59,50,41,35,47,30,18,0.00,40.00,0,-999,0,0.00
2013-5-14,85,71,57,44,37,26,51,30,21,0.00,40.00,0,-999,0,0.00
2013-5-15,75,68,57,34,30,22,32,24,22,0.00,40.00,0,-999,0,0.00
2013-5-16,74,62,56,51,43,34,79,51,33,0.00,40.00,0,-999,0,0.00
2013-5-17,66,58,54,54,50,46,88,75,64,0.00,40.00,0,-999,0,0.00
2013-5-18,62,57,54,55,52,50,91,86,76,0.00,40.00,0,-999,0,0.00
2013-5-19,55,54,52,53,51,50,93,92,90,0.00,40.00,0,-999,0,0.00
2013-5-20,54,54,53,41,40,40,64,61,58,0.00,40.00,0,-999,0,0.00
2013-5-21,74,58,43,52,40,31,77,54,28,0.00,40.00,0,-999,0,0.00
2013-5-22,68,57,46,46,43,39,84,61,44,0.00,40.00,0,-999,0,0.00
2013-5-23,72,61,54,53,46,42,75,59,40,0.00,40.00,0,-999,0,0.00
2013-5-24,76,64,52,51,42,32,82,49,26,0.00,40.00,0,-999,0,0.00
2013-5-25,80,65,48,48,38,31,55,39,30,0.00,40.00,0,-999,0,0.00
2013-5-26,76,63,53,53,45,36,69,52,38,0.00,40.00,0,-999,0,0.00
2013-5-27,74,59,52,54,46,42,74,64,46,0.00,40.00,0,-999,0,0.00
2013-5-28,75,60,48,54,46,43,82,62,41,0.00,40.00,0,-999,0,0.00
2013-5-29,58,55,54,53,50,46,90,83,68,0.00,40.00,0,-999,0,0.00
2013-5-30,58,53,50,52,49,46,92,86,76,0.00,40.00,0,-999,0,0.00
2013-5-31,58,53,49,46,44,42,84,72,60,0.00,40.00,0,-999,0,0.00
2013-6-1,75,61,47,54,45,40,86,58,36,0.00,40.00,0,-999,0,0.00
2013-6-2,79,66,53,53,46,41,70,51,33,0.00,40.00,0,-999,0,0.00
2013-6-3,66,55,48,48,41,34,74,59,45,0.00,40.00,0,-999,0,0.00
2013-6-4,56,50,43,41,37,34,71,61,50,0.00,40.00,0,-999,0,0.00
2013-6-5,73,58,39,49,39,32,77,53,32,0.00,40.00,0,-999,0,0.00
2013-6-6,83,66,48,55,45,37,66,47,30,0.00,40.00,0,-999,0,0.00
2013-6-7,87,70,53,59,49,44,73,50,31,0.00,40.00,0,-999,0,0.00
2013-6-8,83,70,62,52,44,41,50,40,30,0.00,40.00,0,-999,0,0.00
2013-6-9,86,72,52,54,46,40,65,43,29,0.00,40.00,0,-999,0,0.00
2013-6-10,80,69,55,51,46,40,61,44,30,0.00,40.00,0,-999,0,0.00
2013-6-11,81,68,59,61,54,50,79,63,48,0.00,40.00,0,-999,0,0.00
2013-6-12,72,65,56,59,56,50,84,73,62,0.00,40.00,0,-999,0,0.00
2013-6-13,80,67,56,57,52,47,73,61,38,0.00,40.00,0,-999,0,0.00
2013-6-14,77,62,51,54,44,36,75,53,35,0.00,40.00,0,-999,0,0.00
2013-6-15,77,64,49,41,38,34,58,39,27,0.00,40.00,0,-999,0,0.00
2013-6-16,81,68,52,52,43,37,60,41,28,0.00,40.00,0,-999,0,0.00
2013-6-17,80,73,62,50,48,43,53,42,33,0.00,40.00,0,-999,0,0.00
2013-6-18,85,74,66,50,48,46,56,41,30,0.00,40.00,0,-999,0,0.00
2013-6-19,88,77,65,55,48,37,48,37,31,0.00,40.00,0,-999,0,0.00
2013-6-20,81,67,53,44,35,29,44,31,23,0.00,40.00,0,-999,0,0.00
2013-6-21,73,65,56,48,43,34,66,47,33,0.00,40.00,0,-999,0,0.00
2013-6-22,73,60,54,56,48,43,82,65,47,0.00,40.00,0,-999,0,0.00
2013-6-23,81,66,50,55,46,42,75,51,33,0.00,40.00,0,-999,0,0.00
2013-6-24,85,72,56,56,49,42,63,46,30,0.00,40.00,0,-999,0,0.00
2013-6-25,88,76,64,56,48,43,63,39,26,0.00,40.00,0,-999,0,0.00
2013-6-26,71,66,64,50,46,43,61,48,37,0.00,40.00,0,-999,0,0.00
2013-7-1,94,86,72,63,55,51,61,36,29,0.00,40.00,0,-999,0,0.00
2013-7-2,96,81,64,63,54,48,66,41,27,0.00,40.00,0,-999,0,0.00
2013-7-3,100,82,66,63,52,46,58,37,20,0.00,40.00,0,-999,0,0.00
2013-7-4,92,80,71,66,58,48,71,48,29,0.00,40.00,0,-999,0,0.00
2013-7-5,84,73,65,61,56,53,73,57,42,0.00,40.00,0,-999,0,0.00
2013-7-6,87,73,62,61,54,48,81,54,32,0.00,40.00,0,-999,0,0.00
2013-7-7,87,73,62,61,54,49,71,53,35,0.00,40.00,0,-999,0,0.00
2013-7-8,91,73,62,61,56,50,82,57,31,0.00,40.00,0,-999,0,0.00
2013-7-9,87,74,61,66,55,48,82,56,32,0.00,40.00,0,-999,0,0.00
2013-7-10,94,87,73,65,51,43,54,31,20,0.00,40.00,0,-999,0,0.00
2013-7-11,98,81,67,60,50,44,52,36,24,0.00,40.00,0,-999,0,0.00
2013-7-12,93,86,74,56,49,45,41,28,22,0.00,40.00,0,-999,0,0.00
2013-7-13,92,74,61,61,52,46,65,48,30,0.00,40.00,0,-999,0,0.00
2013-7-14,87,74,60,54,50,48,68,45,30,0.00,40.00,0,-999,0,0.00
2013-7-15,97,80,62,65,52,42,69,42,18,0.00,40.00,0,-999,0,0.00
2013-7-16,80,67,62,53,47,42,67,49,30,0.00,40.00,0,-999,0,0.00
2013-7-17,80,70,62,63,57,51,76,64,51,0.00,40.00,0,-999,0,0.00
2013-7-18,96,79,62,66,51,39,75,44,18,0.00,40.00,0,-999,0,0.00
2013-7-19,94,79,62,56,45,36,51,32,20,0.00,40.00,0,-999,0,0.00
2013-7-20,90,72,60,54,44,35,51,38,24,0.00,40.00,0,-999,0,0.00
2013-7-21,93,84,73,54,44,40,41,25,18,0.00,40.00,0,-999,0,0.00
2013-7-22,94,80,64,56,46,35,51,32,18,0.00,40.00,0,-999,0,0.00
2013-7-23,93,78,62,57,46,35,49,34,23,0.00,40.00,0,-999,0,0.00
2013-7-24,96,80,66,57,48,42,52,34,20,0.00,40.00,0,-999,0,0.00
2013-7-25,84,74,64,56,51,47,66,45,32,0.00,40.00,0,-999,0,0.00
2013-7-26,84,72,57,57,48,43,63,45,33,0.00,40.00,0,-999,0,0.00
2013-7-27,88,74,60,56,49,42,56,42,28,0.00,40.00,0,-999,0,0.00
2013-7-28,72,66,64,51,50,49,62,55,48,0.00,40.00,0,-999,0,0.00
2013-8-7,85,76,67,49,47,44,49,37,25,0.00,40.00,0,-999,0,0.00
2013-8-8,83,72,59,56,50,46,64,47,33,0.00,40.00,0,-999,0,0.00
2013-8-9,80,68,61,57,52,46,72,56,42,0.00,40.00,0,-999,0,0.00
2013-8-10,65,63,60,56,55,54,80,76,72,0.00,40.00,0,-999,0,0.00
2013-8-18,92,82,64,55,50,45,51,33,25,0.00,40.00,0,-999,0,0.00
2013-8-19,97,83,65,57,46,36,54,30,18,0.00,40.00,0,-999,0,0.00
2013-8-20,95,77,61,53,43,38,46,31,19,0.00,40.00,0,-999,0,0.00
2013-8-21,88,76,62,50,43,39,45,32,23,0.00,40.00,0,-999,0,0.00
2013-8-22,89,77,62,56,49,42,49,39,30,0.00,40.00,0,-999,0,0.00
2013-8-23,97,79,65,61,51,44,62,41,20,0.00,40.00,0,-999,0,0.00
2013-8-24,91,76,69,60,51,45,58,43,29,0.00,40.00,0,-999,0,0.00
2013-8-25,91,78,65,59,49,41,58,38,21,0.00,40.00,0,-999,0,0.00
2013-8-26,98,82,70,57,48,43,49,32,19,0.00,40.00,0,-999,0,0.00
2013-8-27,93,79,68,55,48,43,46,34,23,0.00,40.00,0,-999,0,0.00
2013-8-28,91,80,72,54,50,48,45,36,28,0.00,40.00,0,-999,0,0.00
2013-8-29,93,75,62,60,53,49,67,48,28,0.00,40.00,0,-999,0,0.00
2013-8-30,93,78,62,64,52,44,68,45,23,0.00,40.00,0,-999,0,0.00
2013-8-31,87,75,64,50,44,37,47,34,25,0.00,40.00,0,-999,0,0.00
2013-9-1,86,72,56,50,42,34,48,35,27,0.00,40.00,0,-999,0,0.00
2013-9-2,89,72,57,58,49,41,62,45,30,0.00,40.00,0,-999,0,0.00
2013-9-3,92,78,64,62,54,47,68,46,28,0.00,40.00,0,-999,0,0.00
2013-9-4,92,79,70,61,54,48,54,42,29,0.00,40.00,0,-999,0,0.00
2013-9-5,93,77,62,64,56,53,72,51,30,0.00,40.00,0,-999,0,0.00
2013-9-6,93,75,64,65,59,54,71,57,35,0.00,40.00,0,-999,0,0.00
2013-9-7,89,73,56,65,58,49,97,62,32,0.00,40.00,0,-999,0,0.00
2013-9-8,77,66,58,70,62,58,100,88,61,0.00,40.00,0,-999,0,0.00
2013-9-9,82,70,57,58,50,46,86,51,43,0.00,40.00,0,-999,0,0.00
2013-9-10,84,68,54,59,48,41,75,52,30,0.00,40.00,0,-999,0,0.00
2013-9-11,78,62,57,54,44,42,58,51,45,0.00,40.00,0,-999,0,0.00
2013-9-16,69,67,66,53,52,52,62,59,56,0.00,40.00,0,-999,0,0.00
2013-9-17,74,66,59,58,54,51,79,66,50,0.00,40.00,0,-999,0,0.00
2013-9-18,63,58,55,45,42,40,58,54,51,0.00,40.00,0,-999,0,0.00
2013-9-19,66,56,49,46,39,35,61,54,41,0.00,40.00,0,-999,0,0.00
2013-9-20,75,58,42,52,41,35,75,55,35,0.00,40.00,0,-999,0,0.00
2013-9-21,85,72,59,49,44,39,47,36,28,0.00,40.00,0,-999,0,0.00
2013-9-22,77,65,57,48,42,38,57,43,33,0.00,40.00,0,-999,0,0.00
2013-9-23,70,62,53,38,34,32,45,35,30,0.00,40.00,0,-999,0,0.00
2013-9-24,73,67,53,43,39,32,46,36,33,0.00,40.00,0,-999,0,0.00
2013-9-25,56,51,48,47,41,34,93,69,45,0.00,40.00,0,-999,0,0.00
2013-9-26,50,46,41,47,39,35,97,75,60,0.00,40.00,0,-999,0,0.00
2013-9-27,57,48,42,43,37,34,81,68,53,0.00,40.00,0,-999,0,0.00
2013-9-28,66,54,42,45,38,33,72,56,39,0.00,40.00,0,-999,0,0.00
2013-9-29,74,59,49,43,37,33,55,45,31,0.00,40.00,0,-999,0,0.00
2013-9-30,76,54,45,49,36,28,70,51,36,0.00,40.00,0,-999,0,0.00
2013-10-1,68,55,40,39,31,23,52,40,33,0.00,40.00,0,-999,0,0.00
2013-10-2,64,53,45,40,33,28,77,46,34,0.00,40.00,0,-999,0,0.00
2013-10-3,46,40,35,43,38,34,99,93,78,0.00,40.00,0,-999,0,0.00
2013-10-4,45,39,33,36,32,26,94,78,58,0.00,40.00,0,-999,0,0.00
2013-10-5,56,42,30,39,31,24,77,65,50,0.00,40.00,0,-999,0,0.00
2013-10-6,66,52,41,42,35,29,63,52,38,0.00,40.00,0,-999,0,0.00
2013-10-7,65,54,40,44,37,30,68,54,41,0.00,40.00,0,-999,0,0.00
2013-10-8,61,52,42,40,34,29,66,51,37,0.00,40.00,0,-999,0,0.00
2013-10-9,51,44,39,37,33,28,70,64,58,0.00,40.00,0,-999,0,0.00
2013-10-10,51,41,37,41,33,30,77,74,67,0.00,40.00,0,-999,0,0.00
2013-10-16,48,43,39,34,32,31,75,66,53,0.00,40.00,0,-999,0,0.00
2013-10-17,46,41,38,37,34,31,82,75,66,0.00,40.00,0,-999,0,0.00
2013-10-18,57,45,34,40,32,27,78,62,46,0.00,40.00,0,-999,0,0.00
2013-10-19,62,50,36,40,32,24,63,50,41,0.00,40.00,0,-999,0,0.00
2013-10-20,58,50,44,38,32,30,60,52,43,0.00,40.00,0,-999,0,0.00
2013-10-21,62,51,42,42,36,31,66,55,45,0.00,40.00,0,-999,0,0.00
2013-10-22,64,51,39,44,35,29,69,56,43,0.00,40.00,0,-999,0,0.00
2013-10-23,61,47,36,42,34,28,73,63,48,0.00,40.00,0,-999,0,0.00
2013-10-24,57,45,35,42,35,28,78,69,56,0.00,40.00,0,-999,0,0.00
2013-10-25,67,50,38,48,36,29,79,60,33,0.00,40.00,0,-999,0,0.00
2013-10-26,66,49,34,45,33,25,73,55,36,0.00,40.00,0,-999,0,0.00
2013-10-27,62,46,35,41,30,25,71,54,30,0.00,40.00,0,-999,0,0.00
2013-10-28,36,29,25,32,27,21,100,90,71,0.00,40.00,0,-999,0,0.00
2013-10-29,35,30,26,27,24,22,91,79,70,0.00,40.00,0,-999,0,0.00
2013-10-30,48,35,24,37,28,19,84,75,64,0.00,40.00,0,-999,0,0.00
2013-10-31,56,45,34,40,32,27,80,63,50,0.00,40.00,0,-999,0,0.00
2013-11-1,58,46,36,36,28,21,56,49,41,0.00,40.00,0,-999,0,0.00
2013-11-2,57,42,30,36,28,20,67,56,45,0.00,40.00,0,-999,0,0.00
2013-11-3,50,42,34,32,26,18,69,54,41,0.00,40.00,0,-999,0,0.00
2013-11-4,40,33,30,26,22,17,75,62,53,0.00,40.00,0,-999,0,0.00
2013-11-5,41,33,27,28,22,18,76,64,48,0.00,40.00,0,-999,0,0.00
2013-11-6,49,39,31,30,23,18,61,53,43,0.00,40.00,0,-999,0,0.00
2013-11-7,51,41,32,32,26,19,62,54,46,0.00,40.00,0,-999,0,0.00
2013-11-8,52,46,40,32,27,24,60,47,39,0.00,40.00,0,-999,0,0.00
2013-11-9,50,41,35,28,22,19,53,47,39,0.00,40.00,0,-999,0,0.00
2013-11-10,47,37,28,30,24,20,78,60,44,0.00,40.00,0,-999,0,0.00
2013-11-11,32,26,21,24,19,15,78,73,67,0.00,40.00,0,-999,0,0.00
2013-11-12,56,38,19,40,27,13,78,63,44,0.00,40.00,0,-999,0,0.00
2013-11-13,51,50,50,31,31,31,47,47,47,0.00,40.00,0,-999,0,0.00
2013-11-19,61,51,34,33,27,16,48,40,35,0.00,40.00,0,-999,0,0.00
2013-11-20,33,18,12,16,8,2,74,63,50,0.00,40.00,0,-999,0,0.00
2013-11-21,21,13,2,9,3,-8,60,58,55,0.00,40.00,0,-999,0,0.00
2013-11-22,32,23,16,17,10,4,58,53,49,0.00,40.00,0,-999,0,0.00
2013-11-23,37,26,14,17,10,2,57,49,43,0.00,40.00,0,-999,0,0.00
2013-11-24,44,33,25,23,16,10,54,47,42,0.00,40.00,0,-999,0,0.00
2013-11-25,42,31,25,24,18,13,63,56,48,0.00,40.00,0,-999,0,0.00
2013-11-26,44,36,27,26,22,17,65,56,50,0.00,40.00,0,-999,0,0.00
2013-11-27,52,40,30,30,22,17,57,48,37,0.00,40.00,0,-999,0,0.00
2013-11-28,39,30,21,25,19,12,65,60,55,0.00,40.00,0,-999,0,0.00
2013-11-29,56,41,33,33,25,20,63,54,39,0.00,40.00,0,-999,0,0.00
2013-11-30,50,41,34,31,26,20,61,55,48,0.00,40.00,0,-999,0,0.00
2013-12-1,47,42,37,30,27,23,59,55,51,0.00,40.00,0,-999,0,0.00
2013-12-2,45,36,23,37,30,19,94,79,54,0.00,40.00,0,-999,0,0.00
2013-12-3,23,15,9,18,9,2,84,73,68,0.00,40.00,0,-999,0,0.00
2013-12-4,14,7,0,7,-1,-9,70,65,61,0.00,40.00,0,-999,0,0.00
2013-12-5,2,-5,-10,-7,-14,-19,61,61,61,0.00,40.00,0,-999,0,0.00
2013-12-6,-3,-9,-14,-12,-18,-22,61,61,61,0.00,40.00,0,-999,0,0.00
2013-12-7,-7,-13,-17,-16,-22,-26,61,61,61,0.00,40.00,0,-999,0,0.00
2013-12-8,8,3,-14,-2,-6,-23,61,61,61,0.00,40.00,0,-999,0,0.00
2013-12-9,21,12,-2,11,2,-11,62,60,58,0.00,40.00,0,-999,0,0.00
2013-12-10,22,18,10,14,10,4,76,70,61,0.00,40.00,0,-999,0,0.00
2013-12-11,29,17,3,18,9,-3,75,66,59,0.00,40.00,0,-999,0,0.00
2013-12-12,40,32,25,24,19,15,63,57,51,0.00,40.00,0,-999,0,0.00
2013-12-13,41,35,29,30,24,18,65,61,58,0.00,40.00,0,-999,0,0.00
2013-12-14,41,34,25,27,23,17,68,62,57,0.00,40.00,0,-999,0,0.00
2013-12-15,49,39,32,30,25,21,64,56,44,0.00,40.00,0,-999,0,0.00
2013-12-16,49,39,31,30,24,18,64,54,47,0.00,40.00,0,-999,0,0.00
2013-12-17,47,38,25,29,24,17,71,57,48,0.00,40.00,0,-999,0,0.00
2013-12-18,44,38,27,29,26,22,99,62,48,0.00,40.00,0,-999,0,0.00
2013-12-19,27,10,0,24,6,-3,92,83,82,0.00,40.00,0,-999,0,0.00
2013-12-20,27,19,0,16,10,-4,82,65,57,0.00,40.00,0,-999,0,0.00
2013-12-21,33,26,16,24,18,10,78,69,62,0.00,40.00,0,-999,0,0.00
2013-12-22,17,10,-2,11,4,-9,87,74,66,0.00,40.00,0,-999,0,0.00
2013-12-23,34,32,19,25,23,12,75,68,67,0.00,40.00,0,-999,0,0.00
2013-12-24,43,37,32,28,22,18,66,55,53,0.00,40.00,0,-999,0,0.00
2013-12-25,60,32,24,21,18,12,59,54,51,29.92,40.00,10,-999,18,3.29
2013-12-26,42,36,30,25,21,16,56,53,50,0.00,40.00,0,-999,0,0.00
2013-12-27,48,42,34,29,25,20,56,51,47,0.00,40.00,0,-999,0,0.00
2013-12-28,42,26,14,26,10,-1,57,51,44,0.00,40.00,0,-999,0,0.00
2013-12-29,37,26,15,22,12,2,59,55,51,0.00,40.00,0,-999,0,0.00
2013-12-30,42,38,32,24,22,17,56,52,49,0.00,40.00,0,-999,0,0.00
2013-12-31,44,38,34,30,25,22,78,60,52,0.00,40.00,0,-999,0,0.00
2014-1-1,38,31,21,30,25,16,95,79,71,0.00,40.00,0,-999,0,0.00
2014-1-2,39,31,19,28,22,13,81,70,59,0.00,40.00,0,-999,0,0.00